This demonstration page uses our WeatherBlox Daily Observations layout. Learn more.

Hourly Observations for February 26, 2017

Temp ( °F °C ) Dew Point ( °F °C ) Humidity (%) Winds ( mph kmh ) Pressure ( in mb ) Visibility ( mi km ) Precip ( " mm )
12:15 am 00:15 Cloudy 31 -0.7 16 -8.7 55 55 SW 9 15 29.97 1015 10 16.0934 0 0
12:35 am 00:35 Cloudy 31 -0.8 16 -9 54 54 SW 10 17 29.97 1015 10 16.0934 0 0
12:55 am 00:55 Cloudy 30 -1.1 16 -9 55 55 SSW 8 13 29.97 1015 10 16.0934 0 0
1:15 am 01:15 Cloudy 30 -1 15 -9.2 54 54 S 9 15 29.97 1015 10 16.0934 0 0
1:35 am 01:35 Cloudy 30 -0.9 15 -9.4 53 53 SSW 6 9 29.97 1015 10 16.0934 0 0
1:55 am 01:55 Cloudy 31 -0.8 15 -9.3 53 53 SSW 10 17 29.97 1015 10 16.0934 0 0
2:15 am 02:15 Cloudy 30 -1 15 -9.5 53 53 SSW 8 13 29.97 1015 10 16.0934 0 0
2:35 am 02:35 Cloudy 31 -0.8 15 -9.4 53 53 SW 8 13 29.97 1015 10 16.0934 0 0
2:55 am 02:55 Cloudy 31 -0.8 14 -9.8 51 51 SSW 8 13 29.97 1015 10 16.0934 0 0
3:15 am 03:15 Cloudy 29 -1.6 15 -9.4 56 56 SW 5 7 29.94 1014 10 16.0934 0 0
3:35 am 03:35 Cloudy 29 -1.6 15 -9.5 55 55 WSW 3 6 29.94 1014 10 16.0934 0 0
3:55 am 03:55 Partly Cloudy 27 -2.8 14 -9.8 59 59 WSW 8 13 29.97 1015 10 16.0934 0 0
4:15 am 04:15 Partly Cloudy 29 -1.4 13 -10.5 50 50 WSW 6 9 29.94 1014 10 16.0934 0 0
4:35 am 04:35 Partly Cloudy 28 -2.5 13 -10.3 55 55 W 9 15 30 1016 10 16.0934 0 0
4:55 am 04:55 Clear 29 -1.7 13 -10.4 52 52 W 9 15 30 1016 10 16.0934 0 0
5:15 am 05:15 Clear 29 -1.8 13 -10.5 52 52 W 10 17 30 1016 10 16.0934 0 0
5:35 am 05:35 Clear 27 -2.6 13 -10.3 56 56 WSW 8 13 30 1016 10 16.0934 0 0
5:55 am 05:55 Clear 28 -2.5 13 -10.4 55 55 W 9 15 30 1016 10 16.0934 0 0
6:15 am 06:15 Clear 28 -2.5 13 -10.6 54 54 W 12 19 30 1016 10 16.0934 0 0
6:35 am 06:35 Clear 27 -2.6 13 -10.7 54 54 W 10 17 30 1016 10 16.0934 0 0
6:55 am 06:55 Clear 26 -3.1 13 -10.6 57 57 W 8 13 30 1016 10 16.0934 0 0
7:15 am 07:15 Sunny 24 -4.2 13 -10.5 62 62 W 8 13 30.03 1017 10 16.0934 0 0
7:35 am 07:35 Sunny 25 -3.7 13 -10.5 60 60 W 10 17 30.03 1017 10 16.0934 0 0
7:55 am 07:55 Sunny 26 -3.5 13 -10.4 59 59 W 10 17 30.03 1017 10 16.0934 0 0
8:15 am 08:15 Sunny 28 -2.4 13 -10.3 55 55 W 9 15 30.03 1017 10 16.0934 0 0
8:35 am 08:35 Sunny 29 -1.6 14 -10.1 53 53 W 10 17 30.03 1017 10 16.0934 0 0
8:55 am 08:55 Sunny 30 -1 14 -10.2 50 50 W 10 17 30 1016 10 16.0934 0 0
9:15 am 09:15 Sunny 32 0 13 -10.3 46 46 W 12 19 30 1016 10 16.0934 0 0
9:35 am 09:35 Sunny 32 0.1 13 -10.5 45 45 WNW 9 15 30 1016 10 16.0934 0 0
9:55 am 09:55 Sunny 34 0.9 12 -10.9 41 41 WNW 10 17 30 1016 10 16.0934 0 0
10:15 am 10:15 Sunny 35 1.4 12 -10.9 40 40 W 10 17 30.03 1017 10 16.0934 0 0
10:35 am 10:35 Sunny 35 1.8 12 -11.1 38 38 NW 9 15 30.03 1017 10 16.0934 0 0
10:55 am 10:55 Sunny 37 2.5 11 -11.6 35 35 WNW 8 13 30 1016 10 16.0934 0 0
11:15 am 11:15 Sunny 37 3 11 -11.5 34 34 W 10 17 30 1016 10 16.0934 0 0
11:35 am 11:35 Sunny 38 3.5 12 -11.1 34 34 WNW 9 15 30 1016 10 16.0934 0 0
11:55 am 11:55 Sunny 39 3.8 12 -11.1 33 33 WNW 10 17 30 1016 10 16.0934 0 0
12:15 pm 12:15 Sunny 39 4.1 11 -11.6 31 31 NW 8 13 30 1016 10 16.0934 0 0
12:35 pm 12:35 Sunny 40 4.5 12 -11.3 31 31 WNW 7 11 29.97 1015 10 16.0934 0 0
12:55 pm 12:55 Sunny 41 5.1 9 -12.6 27 27 W 13 20 29.94 1014 10 16.0934 0 0
1:15 pm 13:15 Sunny 42 5.3 8 -13.1 25 25 WNW 10 17 29.94 1014 10 16.0934 0 0
1:35 pm 13:35 Sunny 43 6.1 9 -13 24 24 W 13 20 29.91 1013 10 16.0934 0 0
1:55 pm 13:55 Sunny 43 6.1 9 -13 24 24 W 12 19 29.91 1013 10 16.0934 0 0
2:15 pm 14:15 Sunny 44 6.5 10 -12.3 25 25 WSW 12 19 29.91 1013 10 16.0934 0 0
2:35 pm 14:35 Sunny 43 6.1 10 -12.2 26 26 W 10 17 29.91 1013 10 16.0934 0 0
2:55 pm 14:55 Sunny 44 6.4 10 -12 26 26 WNW 8 13 29.91 1013 10 16.0934 0 0
3:15 pm 15:15 Sunny 43 6 10 -12.5 25 25 NW 12 19 29.91 1013 10 16.0934 0 0
3:35 pm 15:35 Sunny 43 6.1 9 -12.8 25 25 WNW 7 11 29.91 1013 10 16.0934 0 0
3:55 pm 15:55 Sunny 43 6.2 10 -12.5 25 25 W 9 15 29.91 1013 10 16.0934 0 0
4:15 pm 16:15 Sunny 43 5.9 8 -13.6 23 23 NW 8 13 29.91 1013 10 16.0934 0 0
4:35 pm 16:35 Sunny 43 5.9 9 -12.6 25 25 NW 7 11 29.91 1013 10 16.0934 0 0
4:55 pm 16:55 Sunny 42 5.7 10 -12.2 27 27 NW 5 7 29.94 1014 10 16.0934 0 0
5:15 pm 17:15 Sunny 42 5.5 8 -13.1 25 25 WNW 7 11 29.94 1014 10 16.0934 0 0
5:35 pm 17:35 Sunny 41 5.1 8 -13.2 26 26 NW 7 11 29.94 1014 10 16.0934 0 0
5:55 pm 17:55 Sunny 40 4.5 8 -13.1 27 27 WNW 3 6 29.97 1015 10 16.0934 0 0
6:15 pm 18:15 Sunny 38 3.2 12 -11.3 34 34 Calm 29.97 1015 10 16.0934 0 0
6:35 pm 18:35 Clear 36 2.4 11 -11.5 35 35 Calm 30 1016 10 16.0934 0 0
6:55 pm 18:55 Clear 35 1.7 12 -11.2 38 38 Calm 30.03 1017 10 16.0934 0 0
7:15 pm 19:15 Clear 33 0.6 12 -11 42 42 Calm 30.03 1017 10 16.0934 0 0
7:35 pm 19:35 Clear 33 0.4 12 -11 42 42 Calm 30.03 1017 10 16.0934 0 0
7:55 pm 19:55 Clear 32 -0.1 12 -11 44 44 Calm 30.03 1017 10 16.0934 0 0
8:15 pm 20:15 Clear 28 -2.2 12 -11.1 51 51 Calm 30.06 1018 10 16.0934 0 0
8:35 pm 20:35 Clear 26 -3.2 13 -10.6 57 57 Calm 30.06 1018 10 16.0934 0 0
8:55 pm 20:55 Clear 29 -1.5 12 -11.1 48 48 Calm 30.06 1018 10 16.0934 0 0
9:15 pm 21:15 Clear 26 -3.5 13 -10.3 60 60 Calm 30.06 1018 10 16.0934 0 0
9:35 pm 21:35 Clear 26 -3.1 13 -10.8 56 56 SSE 5 7 30.06 1018 10 16.0934 0 0
9:55 pm 21:55 Clear 24 -4.5 12 -11.2 60 60 SSE 3 6 30.09 1019 10 16.0934 0 0
10:15 pm 22:15 Clear 24 -4.6 11 -11.6 58 58 Calm 30.09 1019 10 16.0934 0 0
10:35 pm 22:35 Clear 25 -3.8 13 -10.7 59 59 Calm 30.06 1018 10 16.0934 0 0
10:55 pm 22:55 Clear 25 -3.9 13 -10.7 60 60 Calm 30.06 1018 10 16.0934 0 0
11:15 pm 23:15 Clear 24 -4.2 13 -10.7 61 61 Calm 30.09 1019 10 16.0934 0 0
11:35 pm 23:35 Clear 24 -4.5 12 -11.1 60 60 Calm 30.09 1019 10 16.0934 0 0
11:55 pm 23:55 Clear 23 -5 14 -10.2 67 67 Calm 30.09 1019 10 16.0934 0 0

Powered by AerisWeather